Location: Newark
(48.1500°N, 2.9667°W)
Time: 14:57:48
(UTC+00:00)

Transit 2A - Pass Details

Date: 26 January 2020
Orbit: 600 x 959 km, 66.7° (Epoch: 22 February)

Event Time Altitude Azimuth Distance (km) Brightness Sun altitude
Rises 02:30:48 0° 331° (NNW) 2,918 - -51.1°
Reaches altitude 10° 02:33:44 10° 351° (N) 2,052 - -50.7°
Maximum altitude 02:36:50 17° 34° (NE) 1,661 - -50.3°
Drops below altitude 10° 02:40:06 10° 76° (ENE) 2,172 - -49.9°
Sets 02:43:18 0° 96° (E) 3,164 - -49.4°
